Location: Hilton Head Island
(32.2163°N, 80.7526°W)
Time: 06:51:39
(UTC-04:00)

Altair - Pass Details

Date: 25 February 2026
Orbit: 1502 x 1682 km, 47.2° (Epoch: 8 March)

Event Time Altitude Azimuth Distance (km) Brightness Sun altitude
Exits shadow 03:11:44 37° 33° (NNE) 2,203 8.4 -47.2°
Drops below altitude 10° 03:16:55 10° 49° (NE) 3,691 10.0 -46.2°
Sets 03:20:03 0° 53° (NE) 4,692 10.8 -45.6°
